GW1769 Weather Reports


time (UTC)temp
F
wind
direction
speed
knots
gust
knots
rain 1hr
in
rain 24hr
in
rain mn
in
humidity
%
barometer
mb
20260507025320 44 324 1.7 2.6 0.00 0.57 0.57 99 1006.5
20260507024818 44 20 0.9 0.9 0.00 0.57 0.57 99 1006.6
20260507024315 44 329 2.6 2.6 0.00 0.57 0.57 99 1006.7
20260507023811 44 8 0.9 0.9 0.00 0.57 0.57 99 1007.0
20260507023307 45 339 1.7 1.7 0.00 0.57 0.57 99 1007.0
20260507022805 45 359 0.9 0.9 0.00 0.57 0.57 99 1007.3
20260507022301 45 58 0.9 1.7 0.00 0.57 0.57 99 1007.1
20260507021757 45 353 1.7 1.7 0.00 0.57 0.57 99 1006.9
20260507021253 45 42 0.9 1.7 0.00 0.57 0.57 99 1006.9
20260507020751 45 8 1.7 1.7 0.00 0.57 0.57 99 1007.0
20260507020247 45 327 1.7 1.7 0.00 0.57 0.57 99 1007.2
20260507015745 45 26 0.9 0.9 0.00 0.57 0.57 99 1007.1
20260507015242 45 354 0.9 0.9 0.00 0.57 0.57 99 1006.9
20260507014739 45 358 1.7 1.7 0.00 0.57 0.57 99 1007.0
20260507014235 45 325 2.6 2.6 0.00 0.57 0.57 99 1006.9
20260507013732 45 16 0.0 0.9 0.00 0.57 0.57 99 1006.5
20260507013229 45 308 0.9 0.9 0.00 0.57 0.57 99 1006.7
20260507012727 46 342 1.7 1.7 0.00 0.57 0.57 99 1006.6
20260507012222 46 39 0.0 0.0 0.00 0.57 0.57 99 1006.6
20260507011720 46 315 1.7 1.7 0.00 0.57 0.57 99 1006.6
20260507011216 46 9 0.9 0.9 0.00 0.57 0.57 99 1006.6
20260507010711 46 352 0.9 0.9 0.00 0.57 0.57 99 1006.6
20260507010207 46 42 0.0 0.0 0.00 0.57 0.57 99 1006.3
20260507005705 46 35 0.9 1.7 0.00 0.57 0.57 99 1006.3
20260507005201 46 56 0.9 0.9 0.00 0.57 0.57 99 1006.1
20260507004657 46 28 0.9 0.9 0.07 0.57 0.57 99 1006.2
20260507004155 46 357 1.7 1.7 0.07 0.57 0.57 99 1006.0
20260507003651 46 67 0.9 1.7 0.00 0.56 0.56 99 1005.9
20260507003151 46 314 0.9 1.7 0.00 0.56 0.56 99 1006.0
20260507002648 46 14 0.9 0.9 0.00 0.56 0.56 99 1005.9
20260507002144 46 29 2.6 4.3 0.00 0.56 0.56 99 1006.0
20260507001641 46 39 1.7 1.7 0.00 0.56 0.56 99 1005.8
20260507001138 46 19 2.6 2.6 0.00 0.56 0.56 99 1005.9
20260507000635 46 168 1.7 1.7 0.00 0.56 0.56 99 1005.7
20260507000130 46 303 2.6 4.3 0.00 0.56 0.56 99 1005.4
20260506235628 46 340 1.7 2.6 0.00 0.56 0.56 99 1005.2
20260506235127 46 304 1.7 4.3 0.00 0.56 0.56 99 1005.4
20260506234625 46 259 1.7 1.7 0.00 0.56 0.56 99 1005.3
20260506234122 46 8 1.7 2.6 0.00 0.56 0.56 99 1005.1
20260506233619 46 311 1.7 2.6 0.00 0.56 0.56 99 1004.9
20260506233116 46 285 1.7 1.7 0.00 0.56 0.56 99 1005.1
20260506232612 46 347 1.7 1.7 0.00 0.56 0.56 99 1004.7
20260506232107 46 278 2.6 4.3 0.00 0.56 0.56 99 1004.7
20260506231605 46 301 1.7 1.7 0.00 0.56 0.56 99 1004.6
20260506231103 46 44 0.0 0.0 0.00 0.56 0.56 99 1004.5
20260506230559 46 314 0.9 1.7 0.00 0.56 0.56 99 1004.7
20260506230057 46 40 0.0 0.9 0.00 0.56 0.56 99 1004.8
20260506225553 46 227 1.7 2.6 0.00 0.56 0.56 99 1004.7
20260506225050 46 341 0.9 1.7 0.05 0.56 0.56 99 1004.6
20260506224547 47 325 0.0 0.9 0.05 0.56 0.56 99 1004.5
20260506224043 46 15 0.9 0.9 0.00 0.55 0.55 99 1004.7
20260506223539 46 296 1.7 1.7 0.00 0.55 0.55 99 1004.4
20260506223036 47 14 1.7 1.7 0.00 0.55 0.55 99 1004.4
20260506222533 47 107 0.9 1.7 0.00 0.55 0.55 99 1004.4
20260506222029 47 230 0.9 1.7 0.00 0.55 0.55 99 1004.1
20260506221527 47 318 3.5 4.3 0.00 0.55 0.55 99 1004.2
20260506221025 47 306 1.7 1.7 0.00 0.55 0.55 99 1004.0
20260506220520 47 205 2.6 2.6 0.00 0.55 0.55 99 1003.8
20260506220016 47 277 2.6 4.3 0.00 0.55 0.55 99 1003.9
20260506215513 47 343 1.7 2.6 0.00 0.55 0.55 99 1003.7
20260506215009 47 316 1.7 2.6 0.00 0.55 0.55 99 1003.8
20260506214506 47 310 3.5 5.2 0.00 0.55 0.55 99 1003.7
20260506214003 48 327 0.9 0.9 0.00 0.55 0.55 99 1003.8
20260506213501 48 34 0.9 1.7 0.00 0.55 0.55 99 1002.8
20260506212958 48 344 1.7 1.7 0.00 0.55 0.55 99 1003.2
20260506212454 48 264 1.7 2.6 0.07 0.55 0.55 99 1003.2
20260506211949 48 31 1.7 1.7 0.07 0.55 0.55 99 1003.3
20260506211445 49 343 0.9 1.7 0.00 0.54 0.54 99 1003.1
20260506210943 49 302 2.6 5.2 0.00 0.54 0.54 99 1002.9
20260506210439 50 312 0.9 1.7 0.00 0.54 0.54 99 1002.8
20260506205936 50 319 1.7 2.6 0.00 0.54 0.54 99 1002.9
20260506205432 50 341 0.9 0.9 0.00 0.54 0.54 99 1002.6
20260506204928 51 316 1.7 1.7 0.00 0.54 0.54 99 1002.5
20260506204427 51 351 2.6 2.6 0.00 0.54 0.54 99 1002.5
20260506203924 51 355 1.7 1.7 0.00 0.54 0.54 99 1002.4
20260506203421 51 55 0.9 0.9 0.00 0.54 0.54 99 1002.4
20260506202918 51 29 0.0 0.9 0.00 0.54 0.54 99 1002.6
20260506202415 51 330 2.6 2.6 0.00 0.54 0.54 99 1002.3
20260506201911 52 348 0.9 0.9 0.00 0.54 0.54 99 1002.2
20260506201409 52 315 0.9 1.7 0.00 0.54 0.54 99 1002.1
20260506200905 52 26 0.9 0.9 0.00 0.54 0.54 99 1002.0
20260506200401 52 342 0.9 1.7 0.00 0.54 0.54 99 1001.9
20260506195858 52 337 0.9 1.7 0.00 0.54 0.54 99 1001.9
20260506195355 53 11 2.6 2.6 0.00 0.54 0.54 99 1002.1
20260506194852 53 301 2.6 2.6 0.00 0.54 0.54 99 1002.0
20260506194349 54 334 2.6 2.6 0.00 0.54 0.54 99 1002.1
20260506193846 55 341 2.6 2.6 0.00 0.54 0.54 99 1002.2
20260506193342 57 347 1.7 1.7 0.00 0.54 0.54 99 1001.9
20260506192839 59 315 0.0 0.9 0.00 0.54 0.54 99 1001.7
20260506192336 59 252 0.0 0.0 0.00 0.54 0.54 99 1001.9
20260506191833 59 62 0.0 0.0 0.00 0.54 0.54 99 1001.8
20260506191329 59 64 0.0 0.0 0.00 0.54 0.54 99 1002.0
20260506190826 59 71 0.0 0.0 0.00 0.54 0.54 99 1001.8
20260506190322 59 82 0.0 0.0 0.00 0.54 0.54 99 1002.0
20260506185820 59 68 0.0 0.0 0.00 0.54 0.54 99 1001.8
20260506185316 59 87 0.0 0.0 0.00 0.54 0.54 99 1002.0
20260506184813 59 85 0.0 0.0 0.00 0.54 0.54 99 1001.8
20260506184311 58 82 0.0 0.0 0.00 0.54 0.54 99 1002.0
20260506183808 58 79 0.0 0.0 0.00 0.54 0.54 99 1002.1
20260506183303 58 60 0.0 0.0 0.00 0.54 0.54 99 1001.8
20260506182800 58 86 0.0 0.0 0.05 0.54 0.54 99 1002.0
20260506182257 57 61 0.0 0.0 0.05 0.54 0.54 99 1002.2
20260506181755 57 64 0.0 0.0 0.00 0.53 0.53 99 1002.3
20260506181253 57 72 0.0 0.0 0.07 0.53 0.53 99 1002.1
20260506180750 57 71 0.0 0.0 0.12 0.53 0.53 99 1002.2
20260506180245 56 82 0.0 0.0 0.12 0.52 0.52 99 1002.3
20260506175742 56 83 0.0 0.0 0.14 0.51 0.51 99 1002.3
20260506175239 56 76 0.0 0.0 0.12 0.50 0.50 99 1002.3
20260506174737 56 69 0.0 0.0 0.12 0.49 0.49 99 1002.4
20260506174233 56 64 0.0 0.0 0.12 0.48 0.48 99 1002.3
20260506173732 55 71 0.0 0.0 0.19 0.48 0.48 99 1002.2
20260506173228 55 67 0.0 0.0 0.12 0.46 0.46 99 1002.5
20260506172724 55 70 0.0 0.0 0.12 0.45 0.45 99 1002.1
20260506172221 55 69 0.0 0.0 0.07 0.44 0.44 99 1002.5
20260506171719 55 61 0.0 0.0 0.05 0.43 0.43 99 1002.4
20260506171216 55 64 0.0 0.0 0.12 0.43 0.43 99 1002.5
20260506170713 55 84 0.0 0.0 0.07 0.42 0.42 99 1002.7
20260506170210 55 65 0.0 0.0 0.12 0.42 0.42 99 1002.4
20260506165709 54 71 0.0 0.0 0.12 0.41 0.41 99 1002.5
20260506165205 54 63 0.0 0.0 0.12 0.40 0.40 99 1002.7
20260506164702 54 58 0.0 0.0 0.19 0.40 0.40 99 1002.6
20260506164159 54 69 0.0 0.0 0.14 0.38 0.38 99 1002.7
20260506163655 54 69 0.0 0.0 0.12 0.37 0.37 99 1002.7
20260506163151 54 60 0.0 0.0 0.12 0.36 0.36 99 1002.8
20260506162647 53 77 0.0 0.0 0.12 0.35 0.35 99 1002.8
20260506162145 53 60 0.0 0.0 0.12 0.34 0.34 99 1002.9
20260506161642 53 57 0.0 0.9 0.07 0.33 0.33 99 1003.1
20260506161138 53 87 0.0 0.0 0.05 0.32 0.32 99 1002.8
20260506160636 53 52 0.0 0.0 0.05 0.32 0.32 99 1002.8
20260506160133 53 76 0.0 0.0 0.00 0.31 0.31 99 1002.9
20260506155632 53 89 0.0 0.0 0.07 0.31 0.31 99 1003.2
20260506155128 53 71 0.0 0.0 0.12 0.30 0.30 99 1003.3
20260506153230 53 69 0.0 0.0 0.07 0.29 0.29 99 1003.5
20260506152727 53 78 0.0 0.0 0.05 0.28 0.28 99 1003.5
20260506152224 53 68 0.0 0.0 0.05 0.28 0.28 99 1003.6
20260506151724 53 65 0.0 0.0 0.07 0.27 0.27 99 1003.6
20260506151219 53 63 0.0 0.0 0.14 0.27 0.27 99 1003.5
20260506150716 53 70 0.0 0.0 0.12 0.26 0.26 99 1003.6
20260506150213 53 67 0.0 0.0 0.05 0.25 0.25 99 1003.6
20260506145710 53 61 0.9 0.9 0.07 0.24 0.24 99 1003.6
20260506145207 53 73 0.0 0.0 0.12 0.24 0.24 99 1003.7
20260506144704 53 64 0.0 0.0 0.12 0.23 0.23 99 1003.9
20260506144201 53 67 0.0 0.0 0.07 0.22 0.22 99 1003.9
20260506143659 53 71 0.0 0.0 0.12 0.21 0.21 99 1004.1
20260506143156 53 71 0.0 0.0 0.17 0.21 0.21 99 1004.0
20260506142655 52 71 0.0 0.0 0.12 0.20 0.20 99 1004.2
20260506142152 53 61 0.0 0.0 0.17 0.19 0.19 99 1004.1
20260506141649 53 60 0.0 0.0 0.19 0.18 0.18 99 1004.2
20260506141148 53 73 0.0 0.0 0.12 0.16 0.16 99 1004.7
20260506140645 53 67 0.0 0.0 0.12 0.15 0.15 99 1004.6
20260506140142 53 73 0.0 0.0 0.14 0.14 0.14 99 1004.8
20260506135639 53 82 0.0 0.0 0.07 0.13 0.13 99 1004.6
20260506135135 53 65 0.0 0.0 0.07 0.13 0.13 99 1004.4
20260506134632 53 55 0.0 0.0 0.05 0.12 0.12 99 1004.1
20260506134127 52 70 0.0 0.0 0.05 0.12 0.12 99 1004.5
20260506133625 52 73 0.0 0.0 0.00 0.11 0.11 99 1004.2
20260506133122 53 69 0.0 0.0 0.07 0.11 0.11 99 1004.0
20260506132619 52 65 0.0 0.0 0.07 0.11 0.11 99 1004.1
20260506132116 52 64 0.0 0.0 0.00 0.10 0.10 99 1004.2
20260506131613 53 48 0.0 0.0 0.00 0.10 0.10 99 1004.0
20260506131110 53 62 0.0 0.0 0.00 0.10 0.10 99 1003.9
20260506130607 52 69 0.0 0.0 0.05 0.10 0.10 99 1004.0
20260506130104 52 64 0.0 0.0 0.05 0.10 0.10 99 1003.9
20260506125603 52 63 0.0 0.0 0.00 0.09 0.09 99 1004.1
20260506125100 52 67 0.0 0.0 0.07 0.09 0.09 99 1004.2
20260506124557 52 65 0.0 0.0 0.07 0.09 0.09 99 1004.2
20260506124055 52 64 0.0 0.0 0.07 0.09 0.09 99 1004.2
20260506123552 52 66 0.0 0.0 0.05 0.08 0.08 99 1004.4
20260506123051 52 64 0.0 0.0 0.05 0.08 0.08 99 1004.4
20260506122547 52 64 0.0 0.0 0.07 0.07 0.07 99 1004.6
20260506122045 52 64 0.0 0.0 0.12 0.07 0.07 99 1004.6
20260506121542 51 40 0.0 0.0 0.05 0.06 0.06 99 1004.6
20260506121039 52 61 0.0 0.0 0.07 0.05 0.05 99 1004.9
20260506120537 52 84 0.0 0.0 0.12 0.05 0.05 99 1005.0
20260506120034 52 70 0.0 0.0 0.05 0.04 0.04 99 1005.1
20260506115532 52 67 0.0 0.0 0.07 0.03 0.03 99 1004.9
20260506115030 52 79 0.0 0.0 0.07 0.03 0.03 99 1004.9
20260506114527 53 358 0.0 0.0 0.00 0.02 0.02 99 1004.9
20260506114025 53 78 0.0 0.0 0.05 0.02 0.02 99 1004.9
20260506113523 52 59 0.0 0.0 0.05 0.02 0.02 99 1004.5
20260506113020 52 35 0.0 0.0 0.00 0.01 0.01 99 1004.7
20260506112516 52 58 0.0 0.0 0.00 0.01 0.01 99 1004.7
20260506112014 52 58 0.0 0.0 0.00 0.01 0.01 99 1004.3
20260506111512 51 12 0.0 0.0 0.00 0.01 0.01 99 1004.5
20260506111009 51 50 0.0 0.0 0.07 0.01 0.01 98 1004.4
20260506110507 51 65 0.0 0.0 0.07 0.01 0.01 98 1004.2
20260506110003 51 247 2.6 2.6 0.00 0.00 0.00 99 1004.4
20260506105459 52 335 0.9 0.9 0.00 0.00 0.00 99 1004.6
20260506104957 52 62 0.0 0.0 0.00 0.00 0.00 99 1004.1
20260506104455 52 264 0.0 0.0 0.00 0.00 0.00 98 1004.4
20260506103953 51 46 0.0 0.0 0.00 0.00 0.00 98 1004.5
20260506103449 51 41 0.0 0.0 0.00 0.00 0.00 98 1004.5
20260506102946 51 86 0.0 0.0 0.00 0.00 0.00 97 1004.4
20260506102444 51 61 0.0 0.0 0.00 0.00 0.00 97 1004.2
20260506101941 51 62 0.0 0.0 0.00 0.00 0.00 96 1004.1
20260506101438 51 22 0.0 0.0 0.00 0.00 0.00 96 1004.3
20260506100935 51 56 0.0 0.0 0.00 0.00 0.00 96 1004.3
20260506100433 51 27 0.0 0.0 0.00 0.00 0.00 97 1004.3
20260506095931 51 37 0.0 0.0 0.00 0.00 0.00 97 1004.5
20260506095429 51 45 0.0 0.0 0.00 0.00 0.00 96 1004.3
20260506094925 51 28 0.0 0.0 0.00 0.00 0.00 96 1004.2
20260506094424 51 62 0.0 0.0 0.00 0.00 0.00 96 1004.0
20260506093921 51 66 0.0 0.0 0.00 0.00 0.00 96 1004.0
20260506093419 50 67 0.0 0.0 0.00 0.00 0.00 96 1004.0
20260506092916 50 67 0.0 0.0 0.00 0.00 0.00 96 1004.1
20260506092414 51 70 0.0 0.0 0.00 0.00 0.00 96 1004.1
20260506091911 51 85 0.0 0.0 0.00 0.00 0.00 96 1004.0
20260506091409 50 62 0.0 0.0 0.00 0.00 0.00 96 1004.2
20260506090905 50 62 0.0 0.0 0.00 0.00 0.00 96 1004.1
20260506090403 50 60 0.0 0.0 0.00 0.00 0.00 96 1004.1
20260506085900 50 57 0.0 0.0 0.00 0.00 0.00 96 1004.3
20260506085356 50 60 0.0 0.0 0.00 0.00 0.00 97 1004.4
20260506084853 50 46 0.0 0.9 0.00 0.00 0.00 97 1004.6
20260506084349 50 57 0.0 0.0 0.00 0.00 0.00 97 1004.5
20260506083846 50 60 0.0 0.0 0.00 0.00 0.00 96 1004.4
20260506083344 50 56 0.0 0.9 0.00 0.00 0.00 96 1004.5
20260506082841 50 62 0.0 0.0 0.00 0.00 0.00 97 1004.4
20260506082338 50 62 0.0 0.0 0.00 0.00 0.00 97 1004.6
20260506081833 50 62 0.0 0.0 0.00 0.00 0.00 97 1004.6
20260506081332 50 62 0.0 0.0 0.00 0.00 0.00 97 1004.7
20260506080829 50 60 0.0 0.0 0.00 0.00 0.00 97 1005.1
20260506080325 50 45 0.0 0.9 0.00 0.00 0.00 97 1004.8
20260506073310 51 62 0.0 0.0 0.00 0.00 0.00 96 1005.5
20260506072806 51 62 0.0 0.0 0.00 0.00 0.00 95 1005.5
20260506072305 51 62 0.0 0.0 0.00 0.00 0.00 95 1005.3
20260506071802 51 62 0.0 0.0 0.00 0.00 0.00 95 1005.2
20260506071300 51 62 0.0 0.0 0.00 0.00 0.00 95 1005.2
20260506070756 51 62 0.0 0.0 0.00 0.00 0.00 94 1005.2
20260506070253 51 62 0.0 0.0 0.00 0.00 0.00 94 1005.2
20260506062230 51 62 0.0 0.0 0.00 0.00 0.00 92 1005.5
20260506061726 51 63 0.0 0.0 0.00 0.00 0.00 92 1005.6
20260506061224 51 62 0.0 0.0 0.00 0.00 0.00 92 1005.7
20260506060722 51 62 0.0 0.0 0.00 0.00 0.00 92 1005.6
20260506060219 51 62 0.0 0.0 0.00 0.00 0.00 92 1005.7
20260506051151 53 56 0.0 0.9 0.00 0.00 0.00 90 1005.7
20260506050649 53 54 0.9 0.9 0.00 0.00 0.00 89 1005.7
20260506050146 53 52 0.0 0.9 0.00 0.00 0.00 87 1005.9
20260506044637 53 29 0.9 0.9 0.00 0.00 0.00 88 1006.0
20260506044134 53 53 0.0 0.0 0.00 0.00 0.00 88 1005.9
20260506043631 53 46 0.9 0.9 0.00 0.00 0.00 90 1006.1
20260506043129 53 54 0.0 0.9 0.00 0.00 0.00 89 1006.0
20260506042627 53 33 0.9 0.9 0.00 0.00 0.00 88 1006.2
20260506042125 54 53 0.0 0.0 0.00 0.00 0.00 88 1006.0
20260506041624 54 58 0.0 0.0 0.00 0.00 0.00 88 1005.7
20260506041120 54 5 0.9 1.7 0.00 0.00 0.00 88 1005.8
20260506040618 54 17 1.7 1.7 0.00 0.00 0.00 89 1006.1
20260506040114 54 56 0.9 0.9 0.00 0.06 0.06 89 1006.3
20260506035611 54 343 1.7 2.6 0.00 0.06 0.06 88 1006.2
20260506035108 54 339 1.7 1.7 0.00 0.06 0.06 89 1006.0
20260506034605 54 32 0.9 0.9 0.07 0.06 0.06 90 1005.8
20260506034102 54 4 0.9 0.9 0.12 0.06 0.06 90 1006.0
20260506033559 55 305 0.9 1.7 0.05 0.05 0.05 89 1006.2
20260506033056 56 54 0.9 0.9 0.00 0.04 0.04 83 1006.2
20260506032554 56 297 1.7 1.7 0.00 0.04 0.04 83 1006.2
20260506032050 56 357 1.7 1.7 0.00 0.04 0.04 83 1006.2
20260506031548 56 301 0.9 0.9 0.00 0.04 0.04 83 1006.2
20260506031044 57 340 0.9 0.9 0.00 0.04 0.04 82 1005.9
20260506030543 57 8 0.9 0.9 0.00 0.04 0.04 83 1006.0
20260506030039 57 42 1.7 1.7 0.00 0.04 0.04 83 1005.8
20260506025536 57 164 1.7 1.7 0.00 0.04 0.04 83 1005.9